Weather History for KCRG - September, 2013

Change the Weather History Date:

Sunday, September 8, 2013

  Actual Average Record
Temperature  
Mean Temperature 80 °F -  
Max Temperature 88 °F 84 °F 91 °F (1996)
Min Temperature 71 °F 70 °F 33 °F (1996)
Cooling Degree Days 14    
Growing Degree Days 30 (Base 50)    
Moisture  
Dew Point 68 °F    
Average Humidity 70    
Maximum Humidity 90    
Minimum Humidity 48    
Precipitation  
Precipitation 0.00 in - - ()
Sea Level Pressure  
Sea Level Pressure 29.97 in    
Wind  
Wind Speed 3 mph (NE)    
Max Wind Speed 12 mph    
Max Gust Speed 18 mph    
Visibility 10 miles    
Events      
Averages and records for this station are not official NWS values.
T = Trace of Precipitation, MM = Missing Value Source: NWS Daily Summary

Daily Weather History Graph

Daily Weather History Graph

Search for Another Location

Airport or City:

Trip Planner

Search our weather history database for the weather conditions in past years. The results will help you decide how hot, cold, wet, or windy it might be!

Date:

Astronomy

Sep. 08, 2013 Rise Set
Actual Time 7:06 AM EDT 7:39 PM EDT
Civil Twilight 6:42 AM EDT 8:04 PM EDT
Nautical Twilight 6:14 AM EDT 8:32 PM EDT
Astronomical Twilight 5:45 AM EDT 9:01 PM EDT
Moon 10:05 AM EDT (9/8) 9:33 PM EDT (9/8)
Length of Visible Light 13h 21m
Length of Day
12h 33m
Waxing Crescent, 11% of the Moon is Illuminated
Sep 8
Waxing Crescent
Sep 12
First Quarter
Sep 19
Full
Sep 26
Last Quarter
Oct 4
New

Hourly Weather History & Observations

Time (EDT) Temp. Heat Index Dew Point Humidity Pressure Visibility Wind Dir Wind Speed Gust Speed Precip Events Conditions
12:53 AM 75.9 °F - 71.1 °F 85% 29.99 in 10.0 mi Calm Calm - N/A   Clear
1:53 AM 73.9 °F - 70.0 °F 87% 29.99 in 10.0 mi Calm Calm - N/A   Clear
2:53 AM 73.9 °F - 70.0 °F 87% 29.96 in 10.0 mi Calm Calm - N/A   Clear
3:53 AM 73.0 °F - 69.1 °F 87% 29.96 in 10.0 mi Calm Calm - N/A   Clear
4:53 AM 72.0 °F - 68.0 °F 87% 29.95 in 10.0 mi Calm Calm - N/A   Clear
5:53 AM 71.1 °F - 68.0 °F 90% 29.96 in 8.0 mi Calm Calm - N/A   Clear
6:53 AM 71.1 °F - 66.9 °F 87% 29.98 in 9.0 mi Calm Calm - N/A   Clear
7:53 AM 73.0 °F - 69.1 °F 87% 29.99 in 9.0 mi Calm Calm - N/A   Clear
8:53 AM 79.0 °F - 71.1 °F 77% 29.99 in 10.0 mi North 4.6 mph - N/A   Partly Cloudy
9:53 AM 84.0 °F 88.4 °F 70.0 °F 63% 30.00 in 10.0 mi North 5.8 mph - N/A   Partly Cloudy
10:53 AM 86.0 °F 88.8 °F 66.9 °F 53% 30.01 in 10.0 mi NE 10.4 mph 18.4 mph N/A   Scattered Clouds
11:53 AM 86.0 °F 87.6 °F 64.9 °F 49% 30.00 in 10.0 mi NE 10.4 mph - N/A   Clear
12:53 PM 87.1 °F 89.9 °F 66.9 °F 51% 29.99 in 10.0 mi ENE 5.8 mph - N/A   Partly Cloudy
1:53 PM 87.1 °F 89.9 °F 66.9 °F 51% 29.97 in 10.0 mi East 9.2 mph - N/A   Clear
2:53 PM 87.1 °F 89.2 °F 66.0 °F 49% 29.96 in 10.0 mi NNE 11.5 mph - N/A   Partly Cloudy
3:53 PM 88.0 °F 90.3 °F 66.0 °F 48% 29.94 in 10.0 mi ENE 8.1 mph - N/A   Clear
4:53 PM 86.0 °F 88.2 °F 66.0 °F 51% 29.94 in 10.0 mi ENE 8.1 mph - N/A   Clear
5:53 PM 84.9 °F 87.1 °F 66.0 °F 53% 29.94 in 10.0 mi ENE 8.1 mph - N/A   Clear
6:53 PM 82.9 °F 85.4 °F 66.9 °F 58% 29.95 in 10.0 mi East 6.9 mph - N/A   Clear
7:53 PM 80.1 °F 82.7 °F 68.0 °F 67% 29.95 in 10.0 mi Calm Calm - N/A   Clear
8:53 PM 78.1 °F - 69.1 °F 74% 29.96 in 10.0 mi Calm Calm - N/A   Clear
9:53 PM 75.9 °F - 70.0 °F 82% 29.97 in 10.0 mi Calm Calm - N/A   Clear
10:53 PM 75.9 °F - 69.1 °F 79% 29.99 in 10.0 mi Calm Calm - N/A   Clear
11:53 PM 73.9 °F - 69.1 °F 85% 29.99 in 10.0 mi Calm Calm - N/A   Clear